date,time,SUV Intensity [MED/Hr],UV Index,Daily total [MED],Since Last [MED]
11/09/2023,00:01:09,0.000,0.0,0.0,0.0
11/09/2023,00:02:09,0.000,0.0,0.0,0.0
11/09/2023,00:03:08,0.000,0.0,0.0,0.0
11/09/2023,00:04:09,0.000,0.0,0.0,0.0
11/09/2023,00:05:09,-0.000,0.0,0.0,0.0
11/09/2023,00:06:08,-0.000,0.0,0.0,0.0
11/09/2023,00:07:08,-0.000,0.0,0.0,0.0
11/09/2023,00:08:09,0.000,0.0,0.0,0.0
11/09/2023,00:09:08,0.000,0.0,0.0,0.0
11/09/2023,00:10:09,0.000,0.0,0.0,0.0
11/09/2023,00:11:06,-0.000,0.0,0.0,0.0
11/09/2023,00:12:07,-0.000,0.0,0.0,0.0
11/09/2023,00:13:08,-0.000,0.0,0.0,0.0
11/09/2023,00:14:10,0.000,0.0,0.0,0.0
11/09/2023,00:15:10,-0.001,0.0,0.0,0.0
11/09/2023,00:16:08,-0.001,0.0,0.0,0.0
11/09/2023,00:17:09,0.000,0.0,0.0,0.0
11/09/2023,00:18:09,0.001,0.0,0.0,0.0
11/09/2023,00:19:09,-0.001,0.0,0.0,0.0
11/09/2023,00:20:08,-0.000,0.0,0.0,0.0
11/09/2023,00:21:10,0.000,0.0,0.0,0.0
11/09/2023,00:22:08,0.000,0.0,0.0,0.0
11/09/2023,00:23:09,0.000,0.0,0.0,0.0
11/09/2023,00:24:08,0.001,0.0,0.0,0.0
11/09/2023,00:25:09,0.000,0.0,0.0,0.0
11/09/2023,00:26:09,-0.000,0.0,0.0,0.0
11/09/2023,00:27:09,-0.000,0.0,0.0,0.0
11/09/2023,00:28:08,0.001,0.0,0.0,0.0
11/09/2023,00:29:09,0.000,0.0,0.0,0.0
11/09/2023,00:30:09,-0.000,0.0,0.0,0.0
11/09/2023,00:31:08,0.000,0.0,0.0,0.0
11/09/2023,00:32:09,-0.001,0.0,0.0,0.0
11/09/2023,00:33:09,-0.001,0.0,0.0,0.0
11/09/2023,00:34:08,0.001,0.0,0.0,0.0
11/09/2023,00:35:09,-0.001,0.0,0.0,0.0
11/09/2023,00:36:08,0.000,0.0,0.0,0.0
11/09/2023,00:37:08,0.000,0.0,0.0,0.0
11/09/2023,00:38:09,0.001,0.0,0.0,0.0
11/09/2023,00:39:09,0.001,0.0,0.0,0.0
11/09/2023,00:40:09,0.000,0.0,0.0,0.0
11/09/2023,00:41:08,0.000,0.0,0.0,0.0
11/09/2023,00:42:09,0.001,0.0,0.0,0.0
11/09/2023,00:43:09,-0.001,0.0,0.0,0.0
11/09/2023,00:44:09,0.001,0.0,0.0,0.0
11/09/2023,00:45:08,0.001,0.0,0.0,0.0
11/09/2023,00:46:09,-0.000,0.0,0.0,0.0
11/09/2023,00:47:08,0.000,0.0,0.0,0.0
11/09/2023,00:48:09,0.000,0.0,0.0,0.0
11/09/2023,00:49:09,-0.000,0.0,0.0,0.0
11/09/2023,00:50:08,-0.000,0.0,0.0,0.0
11/09/2023,00:51:09,0.000,0.0,0.0,0.0
11/09/2023,00:52:38,0.001,0.0,0.0,0.0
11/09/2023,00:54:09,0.000,0.0,0.0,0.0
11/09/2023,00:55:08,0.000,0.0,0.0,0.0
11/09/2023,00:56:09,0.001,0.0,0.0,0.0
11/09/2023,00:57:09,0.000,0.0,0.0,0.0
11/09/2023,00:58:08,0.001,0.0,0.0,0.0
11/09/2023,00:59:09,-0.000,0.0,0.0,0.0
11/09/2023,01:00:08,-0.001,0.0,0.0,0.0
11/09/2023,01:01:10,-0.001,0.0,0.0,0.0
11/09/2023,01:02:09,0.001,0.0,0.0,0.0
11/09/2023,01:03:09,-0.000,0.0,0.0,0.0
11/09/2023,01:04:08,0.000,0.0,0.0,0.0
11/09/2023,01:05:09,0.001,0.0,0.0,0.0
11/09/2023,01:06:09,0.000,0.0,0.0,0.0
11/09/2023,01:07:09,0.000,0.0,0.0,0.0
11/09/2023,01:08:07,0.000,0.0,0.0,0.0
11/09/2023,01:09:07,0.001,0.0,0.0,0.0
11/09/2023,01:10:07,-0.000,0.0,0.0,0.0
11/09/2023,01:11:07,0.000,0.0,0.0,0.0
11/09/2023,01:12:09,0.001,0.0,0.0,0.0
11/09/2023,01:13:09,0.001,0.0,0.0,0.0
11/09/2023,01:14:09,0.000,0.0,0.0,0.0
11/09/2023,01:15:09,-0.001,0.0,0.0,0.0
11/09/2023,01:16:09,-0.001,0.0,0.0,0.0
11/09/2023,01:17:09,0.000,0.0,0.0,0.0
11/09/2023,01:18:09,0.000,0.0,0.0,0.0
11/09/2023,01:19:09,0.001,0.0,0.0,0.0
11/09/2023,01:20:08,0.001,0.0,0.0,0.0
11/09/2023,01:21:08,0.000,0.0,0.0,0.0
11/09/2023,01:22:09,0.000,0.0,0.0,0.0
11/09/2023,01:23:08,0.000,0.0,0.0,0.0
11/09/2023,01:24:09,0.001,0.0,0.0,0.0
11/09/2023,01:25:08,0.000,0.0,0.0,0.0
11/09/2023,01:26:08,0.000,0.0,0.0,0.0
11/09/2023,01:27:09,0.001,0.0,0.0,0.0
11/09/2023,01:28:08,-0.000,0.0,0.0,0.0
11/09/2023,01:29:09,0.002,0.0,0.0,0.0
11/09/2023,01:30:09,-0.000,0.0,0.0,0.0
11/09/2023,01:31:06,0.000,0.0,0.0,0.0
11/09/2023,01:32:09,0.001,0.0,0.0,0.0
11/09/2023,01:33:09,-0.000,0.0,0.0,0.0
11/09/2023,01:34:09,0.001,0.0,0.0,0.0
11/09/2023,01:35:09,0.001,0.0,0.0,0.0
11/09/2023,01:36:09,0.000,0.0,0.0,0.0
11/09/2023,01:37:10,0.001,0.0,0.0,0.0
11/09/2023,01:38:08,0.001,0.0,0.0,0.0
11/09/2023,01:39:08,0.000,0.0,0.0,0.0
11/09/2023,01:40:09,-0.001,0.0,0.0,0.0
11/09/2023,01:41:09,0.000,0.0,0.0,0.0
11/09/2023,01:42:09,0.000,0.0,0.0,0.0
11/09/2023,01:43:09,-0.001,0.0,0.0,0.0
11/09/2023,01:44:08,-0.000,0.0,0.0,0.0
11/09/2023,01:45:09,0.000,0.0,0.0,0.0
11/09/2023,01:46:09,0.001,0.0,0.0,0.0
11/09/2023,01:47:09,0.001,0.0,0.0,0.0
11/09/2023,01:48:09,0.001,0.0,0.0,0.0
11/09/2023,01:49:08,0.001,0.0,0.0,0.0
11/09/2023,01:50:08,0.001,0.0,0.0,0.0
11/09/2023,01:51:09,0.001,0.0,0.0,0.0
11/09/2023,01:52:08,0.001,0.0,0.0,0.0
11/09/2023,01:53:09,0.002,0.0,0.0,0.0
11/09/2023,01:54:08,0.000,0.0,0.0,0.0
11/09/2023,01:55:09,0.001,0.0,0.0,0.0
11/09/2023,01:56:09,0.001,0.0,0.0,0.0
11/09/2023,01:57:09,0.000,0.0,0.0,0.0
11/09/2023,01:58:09,0.001,0.0,0.0,0.0
11/09/2023,01:59:09,0.001,0.0,0.0,0.0
11/09/2023,02:00:09,0.001,0.0,0.0,0.0
11/09/2023,02:01:09,0.002,0.0,0.0,0.0
11/09/2023,02:02:09,0.001,0.0,0.0,0.0
11/09/2023,02:03:08,0.001,0.0,0.0,0.0
11/09/2023,02:04:09,0.000,0.0,0.0,0.0
11/09/2023,02:05:09,0.001,0.0,0.0,0.0
11/09/2023,02:06:09,0.000,0.0,0.0,0.0
11/09/2023,02:07:08,-0.001,0.0,0.0,0.0
11/09/2023,02:08:09,-0.000,0.0,0.0,0.0
11/09/2023,02:09:09,0.001,0.0,0.0,0.0
11/09/2023,02:10:09,0.001,0.0,0.0,0.0
11/09/2023,02:11:09,0.000,0.0,0.0,0.0
11/09/2023,02:12:09,0.000,0.0,0.0,0.0
11/09/2023,02:13:09,0.001,0.0,0.0,0.0
11/09/2023,02:14:09,0.001,0.0,0.0,0.0
11/09/2023,02:15:09,0.000,0.0,0.0,0.0
11/09/2023,02:16:09,0.001,0.0,0.0,0.0
11/09/2023,02:17:09,0.001,0.0,0.0,0.0
11/09/2023,02:18:09,0.000,0.0,0.0,0.0
11/09/2023,02:19:08,0.001,0.0,0.0,0.0
11/09/2023,02:20:09,0.000,0.0,0.0,0.0
11/09/2023,02:21:08,-0.000,0.0,0.0,0.0
11/09/2023,02:22:09,0.001,0.0,0.0,0.0
11/09/2023,02:23:08,0.001,0.0,0.0,0.0
11/09/2023,02:24:09,0.000,0.0,0.0,0.0
11/09/2023,02:25:09,0.001,0.0,0.0,0.0
11/09/2023,02:26:09,0.000,0.0,0.0,0.0
11/09/2023,02:27:09,0.000,0.0,0.0,0.0
11/09/2023,02:28:08,0.000,0.0,0.0,0.0
11/09/2023,02:29:09,0.000,0.0,0.0,0.0
11/09/2023,02:30:09,-0.000,0.0,0.0,0.0
11/09/2023,02:31:09,0.000,0.0,0.0,0.0
11/09/2023,02:32:07,0.001,0.0,0.0,0.0
11/09/2023,02:33:07,0.001,0.0,0.0,0.0
11/09/2023,02:34:09,0.001,0.0,0.0,0.0
11/09/2023,02:35:09,0.001,0.0,0.0,0.0
11/09/2023,02:36:09,0.001,0.0,0.0,0.0
11/09/2023,02:37:09,0.001,0.0,0.0,0.0
11/09/2023,02:38:09,0.001,0.0,0.0,0.0
11/09/2023,02:39:10,-0.000,0.0,0.0,0.0
11/09/2023,02:40:09,0.001,0.0,0.0,0.0
11/09/2023,02:41:09,0.000,0.0,0.0,0.0
11/09/2023,02:42:09,0.001,0.0,0.0,0.0
11/09/2023,02:43:09,0.001,0.0,0.0,0.0
11/09/2023,02:44:09,-0.000,0.0,0.0,0.0
11/09/2023,02:45:09,0.001,0.0,0.0,0.0
11/09/2023,02:46:08,0.001,0.0,0.0,0.0
11/09/2023,02:47:07,0.001,0.0,0.0,0.0
11/09/2023,02:48:07,0.000,0.0,0.0,0.0
11/09/2023,02:49:09,0.000,0.0,0.0,0.0
11/09/2023,02:50:09,0.001,0.0,0.0,0.0
11/09/2023,02:51:09,0.001,0.0,0.0,0.0
11/09/2023,02:52:09,0.000,0.0,0.0,0.0
11/09/2023,02:53:09,0.000,0.0,0.0,0.0
11/09/2023,02:54:09,0.001,0.0,0.0,0.0
11/09/2023,02:55:09,0.001,0.0,0.0,0.0
11/09/2023,02:56:09,0.001,0.0,0.0,0.0
11/09/2023,02:57:09,-0.000,0.0,0.0,0.0
11/09/2023,02:58:09,0.001,0.0,0.0,0.0
11/09/2023,02:59:08,0.000,0.0,0.0,0.0
11/09/2023,03:00:09,0.001,0.0,0.0,0.0
11/09/2023,03:01:10,0.001,0.0,0.0,0.0
11/09/2023,03:02:09,0.002,0.0,0.0,0.0
11/09/2023,03:03:09,0.001,0.0,0.0,0.0
11/09/2023,03:04:09,-0.000,0.0,0.0,0.0
11/09/2023,03:05:09,0.002,0.0,0.0,0.0
11/09/2023,03:06:13,0.001,0.0,0.0,0.0
11/09/2023,03:07:10,0.001,0.0,0.0,0.0
11/09/2023,03:08:08,0.002,0.0,0.0,0.0
11/09/2023,03:09:09,0.001,0.0,0.0,0.0
11/09/2023,03:10:09,0.002,0.0,0.0,0.0
11/09/2023,03:11:09,0.000,0.0,0.0,0.0
11/09/2023,03:12:09,0.001,0.0,0.0,0.0
11/09/2023,03:13:09,0.001,0.0,0.0,0.0
11/09/2023,03:14:09,0.001,0.0,0.0,0.0
11/09/2023,03:15:09,0.000,0.0,0.0,0.0
11/09/2023,03:16:09,0.001,0.0,0.0,0.0
11/09/2023,03:17:07,0.000,0.0,0.0,0.0
11/09/2023,03:18:07,0.001,0.0,0.0,0.0
11/09/2023,03:19:09,0.002,0.0,0.0,0.0
11/09/2023,03:20:09,0.002,0.0,0.0,0.0
11/09/2023,03:21:09,0.002,0.0,0.0,0.0
11/09/2023,03:22:09,0.001,0.0,0.0,0.0
11/09/2023,03:23:09,0.001,0.0,0.0,0.0
11/09/2023,03:24:09,0.001,0.0,0.0,0.0
11/09/2023,03:25:09,0.002,0.0,0.0,0.0
11/09/2023,03:26:09,0.001,0.0,0.0,0.0
11/09/2023,03:27:09,0.001,0.0,0.0,0.0
11/09/2023,03:28:09,0.001,0.0,0.0,0.0
11/09/2023,03:29:09,0.000,0.0,0.0,0.0
11/09/2023,03:30:08,0.001,0.0,0.0,0.0
11/09/2023,03:31:09,0.001,0.0,0.0,0.0
11/09/2023,03:32:08,0.001,0.0,0.0,0.0
11/09/2023,03:33:07,0.002,0.0,0.0,0.0
11/09/2023,03:34:07,0.001,0.0,0.0,0.0
11/09/2023,03:35:09,0.001,0.0,0.0,0.0
11/09/2023,03:36:09,0.002,0.0,0.0,0.0
11/09/2023,03:37:09,0.001,0.0,0.0,0.0
11/09/2023,03:38:09,0.001,0.0,0.0,0.0
11/09/2023,03:39:09,0.001,0.0,0.0,0.0
11/09/2023,03:40:09,0.001,0.0,0.0,0.0
11/09/2023,03:41:09,0.002,0.0,0.0,0.0
11/09/2023,03:42:09,0.002,0.0,0.0,0.0
11/09/2023,03:43:09,0.001,0.0,0.0,0.0
11/09/2023,03:44:09,0.002,0.0,0.0,0.0
11/09/2023,03:45:09,0.002,0.0,0.0,0.0
11/09/2023,03:46:09,0.001,0.0,0.0,0.0
11/09/2023,03:47:09,0.000,0.0,0.0,0.0
11/09/2023,03:48:09,0.002,0.0,0.0,0.0
11/09/2023,03:49:09,0.002,0.0,0.0,0.0
11/09/2023,03:50:09,0.001,0.0,0.0,0.0
11/09/2023,03:51:07,0.001,0.0,0.0,0.0
11/09/2023,03:52:07,0.002,0.0,0.0,0.0
11/09/2023,03:53:09,0.001,0.0,0.0,0.0
11/09/2023,03:54:09,0.002,0.0,0.0,0.0
11/09/2023,03:55:09,0.001,0.0,0.0,0.0
11/09/2023,03:56:09,0.002,0.0,0.0,0.0
11/09/2023,03:57:09,0.001,0.0,0.0,0.0
11/09/2023,03:58:09,0.001,0.0,0.0,0.0
11/09/2023,03:59:09,0.002,0.0,0.0,0.0
11/09/2023,04:00:09,0.001,0.0,0.0,0.0
11/09/2023,04:01:09,0.001,0.0,0.0,0.0
11/09/2023,04:02:09,0.001,0.0,0.0,0.0
11/09/2023,04:03:09,0.002,0.0,0.0,0.0
11/09/2023,04:04:09,0.001,0.0,0.0,0.0
11/09/2023,04:05:09,0.001,0.0,0.0,0.0
11/09/2023,04:06:09,0.002,0.0,0.0,0.0
11/09/2023,04:07:09,0.002,0.0,0.0,0.0
11/09/2023,04:08:09,0.001,0.0,0.0,0.0
11/09/2023,04:09:09,0.002,0.0,0.0,0.0
11/09/2023,04:10:09,0.001,0.0,0.0,0.0
11/09/2023,04:11:09,0.000,0.0,0.0,0.0
11/09/2023,04:12:09,0.000,0.0,0.0,0.0
11/09/2023,04:13:09,0.001,0.0,0.0,0.0
11/09/2023,04:14:09,0.001,0.0,0.0,0.0
11/09/2023,04:15:09,0.002,0.0,0.0,0.0
11/09/2023,04:16:09,0.001,0.0,0.0,0.0
11/09/2023,04:17:09,0.001,0.0,0.0,0.0
11/09/2023,04:18:09,0.000,0.0,0.0,0.0
11/09/2023,04:19:09,0.001,0.0,0.0,0.0
11/09/2023,04:20:09,0.001,0.0,0.0,0.0
11/09/2023,04:21:09,0.001,0.0,0.0,0.0
11/09/2023,04:22:09,0.001,0.0,0.0,0.0
11/09/2023,04:23:09,0.002,0.0,0.0,0.0
11/09/2023,04:24:09,0.001,0.0,0.0,0.0
11/09/2023,04:25:09,0.002,0.0,0.0,0.0
11/09/2023,04:26:09,0.001,0.0,0.0,0.0
11/09/2023,04:27:09,0.001,0.0,0.0,0.0
11/09/2023,04:28:09,0.001,0.0,0.0,0.0
11/09/2023,04:29:09,0.002,0.0,0.0,0.0
11/09/2023,04:30:09,0.002,0.0,0.0,0.0
11/09/2023,04:31:09,0.001,0.0,0.0,0.0
11/09/2023,04:32:09,0.002,0.0,0.0,0.0
11/09/2023,04:33:09,0.001,0.0,0.0,0.0
11/09/2023,04:34:09,0.001,0.0,0.0,0.0
11/09/2023,04:35:09,0.001,0.0,0.0,0.0
11/09/2023,04:36:09,0.001,0.0,0.0,0.0
11/09/2023,04:37:09,0.002,0.0,0.0,0.0
11/09/2023,04:38:09,0.000,0.0,0.0,0.0
11/09/2023,04:39:09,0.001,0.0,0.0,0.0
11/09/2023,04:40:09,0.001,0.0,0.0,0.0
11/09/2023,04:41:09,0.001,0.0,0.0,0.0
11/09/2023,04:42:09,0.001,0.0,0.0,0.0
11/09/2023,04:43:09,0.001,0.0,0.0,0.0
11/09/2023,04:44:09,0.000,0.0,0.0,0.0
11/09/2023,04:45:09,0.001,0.0,0.0,0.0
11/09/2023,04:46:09,0.001,0.0,0.0,0.0
11/09/2023,04:47:09,0.002,0.0,0.0,0.0
11/09/2023,04:48:10,0.001,0.0,0.0,0.0
11/09/2023,04:49:09,0.000,0.0,0.0,0.0
11/09/2023,04:50:09,0.001,0.0,0.0,0.0
11/09/2023,04:51:09,0.002,0.0,0.0,0.0
11/09/2023,04:52:10,0.001,0.0,0.0,0.0
11/09/2023,04:53:09,0.001,0.0,0.0,0.0
11/09/2023,04:54:09,0.001,0.0,0.0,0.0
11/09/2023,04:55:09,0.001,0.0,0.0,0.0
11/09/2023,04:56:09,0.000,0.0,0.0,0.0
11/09/2023,04:57:09,0.000,0.0,0.0,0.0
11/09/2023,04:58:09,0.000,0.0,0.0,0.0
11/09/2023,04:59:09,0.002,0.0,0.0,0.0
11/09/2023,05:00:09,0.001,0.0,0.0,0.0
11/09/2023,05:01:10,0.000,0.0,0.0,0.0
11/09/2023,05:02:09,0.001,0.0,0.0,0.0
11/09/2023,05:03:09,0.000,0.0,0.0,0.0
11/09/2023,05:04:08,0.001,0.0,0.0,0.0
11/09/2023,05:05:07,0.001,0.0,0.0,0.0
11/09/2023,05:06:09,-0.000,0.0,0.0,0.0
11/09/2023,05:07:09,0.001,0.0,0.0,0.0
11/09/2023,05:08:10,0.001,0.0,0.0,0.0
11/09/2023,05:09:10,0.001,0.0,0.0,0.0
11/09/2023,05:10:09,0.002,0.0,0.0,0.0
11/09/2023,05:11:10,0.001,0.0,0.0,0.0
11/09/2023,05:12:09,0.001,0.0,0.0,0.0
11/09/2023,05:13:09,0.001,0.0,0.0,0.0
11/09/2023,05:14:10,0.001,0.0,0.0,0.0
11/09/2023,05:15:09,0.001,0.0,0.0,0.0
11/09/2023,05:16:10,0.001,0.0,0.0,0.0
11/09/2023,05:17:09,0.002,0.0,0.0,0.0
11/09/2023,05:18:09,0.000,0.0,0.0,0.0
11/09/2023,05:19:09,0.001,0.0,0.0,0.0
11/09/2023,05:20:10,0.001,0.0,0.0,0.0
11/09/2023,05:21:09,0.001,0.0,0.0,0.0
11/09/2023,05:22:09,0.001,0.0,0.0,0.0
11/09/2023,05:23:09,0.002,0.0,0.0,0.0
11/09/2023,05:24:09,0.002,0.0,0.0,0.0
11/09/2023,05:25:09,0.001,0.0,0.0,0.0
11/09/2023,05:26:09,0.000,0.0,0.0,0.0
11/09/2023,05:27:09,0.002,0.0,0.0,0.0
11/09/2023,05:28:10,0.002,0.0,0.0,0.0
11/09/2023,05:29:09,0.002,0.0,0.0,0.0
11/09/2023,05:30:09,0.002,0.0,0.0,0.0
11/09/2023,05:31:09,0.002,0.0,0.0,0.0
11/09/2023,05:32:10,0.001,0.0,0.0,0.0
11/09/2023,05:33:09,0.002,0.0,0.0,0.0
11/09/2023,05:34:09,0.001,0.0,0.0,0.0
11/09/2023,05:35:09,0.002,0.0,0.0,0.0
11/09/2023,05:36:09,0.002,0.0,0.0,0.0
11/09/2023,05:37:09,0.002,0.0,0.0,0.0
11/09/2023,05:38:09,0.002,0.0,0.0,0.0
11/09/2023,05:39:09,0.002,0.0,0.0,0.0
11/09/2023,05:40:09,0.002,0.0,0.0,0.0
11/09/2023,05:41:09,0.002,0.0,0.0,0.0
11/09/2023,05:42:09,0.003,0.0,0.0,0.0
11/09/2023,05:43:09,0.004,0.0,0.0,0.0
11/09/2023,05:44:09,0.003,0.0,0.0,0.0
11/09/2023,05:45:10,0.004,0.0,0.0,0.0
11/09/2023,05:46:09,0.003,0.0,0.0,0.0
11/09/2023,05:47:09,0.004,0.0,0.0,0.0
11/09/2023,05:48:09,0.004,0.0,0.0,0.0
11/09/2023,05:49:10,0.004,0.0,0.0,0.0
11/09/2023,05:50:09,0.004,0.0,0.0,0.0
11/09/2023,05:51:09,0.005,0.0,0.0,0.0
11/09/2023,05:52:09,0.005,0.0,0.0,0.0
11/09/2023,05:53:09,0.005,0.0,0.0,0.0
11/09/2023,05:54:09,0.005,0.0,0.0,0.0
11/09/2023,05:55:09,0.004,0.0,0.0,0.0
11/09/2023,05:56:09,0.005,0.0,0.0,0.0
11/09/2023,05:57:09,0.005,0.0,0.0,0.0
11/09/2023,05:58:07,0.005,0.0,0.0,0.0
11/09/2023,05:59:07,0.006,0.0,0.0,0.0
11/09/2023,06:00:10,0.006,0.0,0.0,0.0
11/09/2023,06:01:09,0.006,0.0,0.0,0.0
11/09/2023,06:02:10,0.006,0.0,0.0,0.0
11/09/2023,06:03:09,0.007,0.0,0.0,0.0
11/09/2023,06:04:09,0.007,0.0,0.001,0.001
11/09/2023,06:05:10,0.008,0.0,0.001,0.0
11/09/2023,06:06:09,0.010,0.0,0.001,0.0
11/09/2023,06:07:09,0.010,0.0,0.001,0.0
11/09/2023,06:08:09,0.011,0.0,0.001,0.0
11/09/2023,06:09:09,0.014,0.0,0.001,0.0
11/09/2023,06:10:09,0.015,0.0,0.002,0.001
11/09/2023,06:11:10,0.017,0.0,0.002,0.0
11/09/2023,06:12:09,0.017,0.0,0.002,0.0
11/09/2023,06:13:09,0.019,0.0,0.002,0.0
11/09/2023,06:14:10,0.019,0.0,0.003,0.001
11/09/2023,06:15:09,0.020,0.0,0.003,0.0
11/09/2023,06:16:09,0.020,0.0,0.003,0.0
11/09/2023,06:17:09,0.022,0.0,0.004,0.001
11/09/2023,06:18:08,0.023,0.0,0.004,0.0
11/09/2023,06:19:07,0.024,0.0,0.005,0.001
11/09/2023,06:20:09,0.023,0.0,0.005,0.0
11/09/2023,06:21:09,0.025,0.0,0.005,0.0
11/09/2023,06:22:10,0.024,0.0,0.006,0.001
11/09/2023,06:23:09,0.023,0.0,0.006,0.0
11/09/2023,06:24:09,0.025,0.0,0.007,0.001
11/09/2023,06:25:09,0.026,0.0,0.007,0.0
11/09/2023,06:26:09,0.026,0.0,0.007,0.0
11/09/2023,06:27:09,0.028,0.0,0.008,0.001
11/09/2023,06:28:10,0.030,0.0,0.008,0.0
11/09/2023,06:29:09,0.030,0.0,0.009,0.001
11/09/2023,06:30:09,0.033,0.0,0.009,0.0
11/09/2023,06:31:09,0.033,0.0,0.01,0.001
11/09/2023,06:32:09,0.034,0.0,0.01,0.0
11/09/2023,06:33:09,0.034,0.0,0.011,0.001
11/09/2023,06:34:10,0.034,0.0,0.012,0.001
11/09/2023,06:35:09,0.035,0.0,0.012,0.0
11/09/2023,06:36:09,0.036,0.0,0.013,0.001
11/09/2023,06:37:09,0.036,0.0,0.013,0.0
11/09/2023,06:38:09,0.037,0.0,0.014,0.001
11/09/2023,06:39:09,0.036,0.0,0.015,0.001
11/09/2023,06:40:09,0.036,0.0,0.015,0.0
11/09/2023,06:41:09,0.038,0.0,0.016,0.001
11/09/2023,06:42:09,0.038,0.0,0.016,0.0
11/09/2023,06:43:09,0.038,0.0,0.017,0.001
11/09/2023,06:44:09,0.038,0.0,0.018,0.001
11/09/2023,06:45:09,0.038,0.0,0.018,0.0
11/09/2023,06:46:09,0.038,0.0,0.019,0.001
11/09/2023,06:47:10,0.038,0.0,0.02,0.001
11/09/2023,06:48:09,0.036,0.0,0.02,0.0
11/09/2023,06:49:09,0.038,0.0,0.021,0.001
11/09/2023,06:50:09,0.039,0.0,0.022,0.001
11/09/2023,06:51:09,0.041,0.0,0.022,0.0
11/09/2023,06:52:09,0.044,0.0,0.023,0.001
11/09/2023,06:53:09,0.046,0.0,0.024,0.001
11/09/2023,06:54:09,0.046,0.0,0.024,0.0
11/09/2023,06:55:09,0.047,0.0,0.025,0.001
11/09/2023,06:56:08,0.048,0.0,0.026,0.001
11/09/2023,06:57:07,0.051,0.0,0.027,0.001
11/09/2023,06:58:09,0.051,0.0,0.028,0.001
11/09/2023,06:59:10,0.052,0.0,0.028,0.0
11/09/2023,07:00:10,0.054,0.0,0.029,0.001
11/09/2023,07:01:09,0.058,0.0,0.03,0.001
11/09/2023,07:02:10,0.060,0.0,0.031,0.001
11/09/2023,07:03:09,0.063,0.0,0.032,0.001
11/09/2023,07:04:11,0.065,0.0,0.033,0.001
11/09/2023,07:05:09,0.068,0.0,0.034,0.001
11/09/2023,07:06:09,0.074,0.0,0.036,0.002
11/09/2023,07:07:09,0.083,0.0,0.037,0.001
11/09/2023,07:08:09,0.091,0.0,0.038,0.001
11/09/2023,07:09:10,0.099,0.0,0.04,0.002
11/09/2023,07:10:09,0.106,0.0,0.042,0.002
11/09/2023,07:11:09,0.114,0.0,0.044,0.002
11/09/2023,07:12:11,0.116,0.0,0.045,0.001
11/09/2023,07:13:09,0.120,0.0,0.047,0.002
11/09/2023,07:14:09,0.122,0.0,0.049,0.002
11/09/2023,07:15:07,0.125,0.0,0.051,0.002
11/09/2023,07:16:07,0.126,0.0,0.053,0.002
11/09/2023,07:17:10,0.130,0.0,0.056,0.003
11/09/2023,07:18:10,0.131,0.0,0.058,0.002
11/09/2023,07:19:09,0.134,0.0,0.06,0.002
11/09/2023,07:20:10,0.135,0.0,0.062,0.002
11/09/2023,07:21:09,0.138,0.0,0.065,0.003
11/09/2023,07:22:09,0.141,0.0,0.067,0.002
11/09/2023,07:23:09,0.142,0.0,0.069,0.002
11/09/2023,07:24:09,0.146,0.0,0.072,0.003
11/09/2023,07:25:10,0.150,0.0,0.074,0.002
11/09/2023,07:26:09,0.153,0.0,0.077,0.003
11/09/2023,07:27:10,0.156,0.0,0.079,0.002
11/09/2023,07:28:09,0.159,0.0,0.082,0.003
11/09/2023,07:29:09,0.164,0.0,0.085,0.003
11/09/2023,07:30:09,0.171,0.0,0.087,0.002
11/09/2023,07:31:10,0.175,0.0,0.09,0.003
11/09/2023,07:32:09,0.179,0.0,0.093,0.003
11/09/2023,07:33:09,0.181,0.0,0.096,0.003
11/09/2023,07:34:10,0.186,0.0,0.099,0.003
11/09/2023,07:35:09,0.188,0.0,0.102,0.003
11/09/2023,07:36:13,0.194,0.0,0.106,0.004
11/09/2023,07:37:11,0.194,0.0,0.109,0.003
11/09/2023,07:38:09,0.203,0.0,0.112,0.003
11/09/2023,07:39:09,0.207,0.0,0.116,0.004
11/09/2023,07:40:09,0.211,0.0,0.119,0.003
11/09/2023,07:41:09,0.215,0.0,0.123,0.004
11/09/2023,07:42:10,0.218,1.0,0.126,0.003
11/09/2023,07:43:10,0.217,0.0,0.13,0.004
11/09/2023,07:44:10,0.231,1.0,0.134,0.004
11/09/2023,07:45:09,0.236,1.0,0.138,0.004
11/09/2023,07:46:10,0.234,1.0,0.142,0.004
11/09/2023,07:47:09,0.240,1.0,0.146,0.004
11/09/2023,07:48:10,0.241,1.0,0.15,0.004
11/09/2023,07:49:09,0.247,1.0,0.154,0.004
11/09/2023,07:50:07,0.253,1.0,0.158,0.004
11/09/2023,07:51:08,0.258,1.0,0.162,0.004
11/09/2023,07:52:09,0.266,1.0,0.166,0.004
11/09/2023,07:53:10,0.270,1.0,0.171,0.005
11/09/2023,07:54:10,0.278,1.0,0.175,0.004
11/09/2023,07:55:10,0.278,1.0,0.18,0.005
11/09/2023,07:56:09,0.288,1.0,0.185,0.005
11/09/2023,07:57:09,0.293,1.0,0.19,0.005
11/09/2023,07:58:10,0.291,1.0,0.195,0.005
11/09/2023,07:59:09,0.296,1.0,0.199,0.004
11/09/2023,08:00:09,0.305,1.0,0.204,0.005
11/09/2023,08:01:10,0.309,1.0,0.21,0.006
11/09/2023,08:02:10,0.312,1.0,0.215,0.005
11/09/2023,08:03:10,0.309,1.0,0.22,0.005
11/09/2023,08:04:10,0.316,1.0,0.225,0.005
11/09/2023,08:05:10,0.321,1.0,0.23,0.005
11/09/2023,08:06:10,0.324,1.0,0.236,0.006
11/09/2023,08:07:09,0.328,1.0,0.241,0.005
11/09/2023,08:08:10,0.331,1.0,0.247,0.006
11/09/2023,08:09:10,0.326,1.0,0.252,0.005
11/09/2023,08:10:10,0.332,1.0,0.258,0.006
11/09/2023,08:11:09,0.343,1.0,0.263,0.005
11/09/2023,08:12:10,0.355,1.0,0.269,0.006
11/09/2023,08:13:11,0.360,1.0,0.275,0.006
11/09/2023,08:14:09,0.364,1.0,0.281,0.006
11/09/2023,08:15:09,0.367,1.0,0.287,0.006
11/09/2023,08:16:09,0.378,1.0,0.293,0.006
11/09/2023,08:17:10,0.383,1.0,0.3,0.007
11/09/2023,08:18:10,0.389,1.0,0.306,0.006
11/09/2023,08:19:09,0.393,1.0,0.313,0.007
11/09/2023,08:20:10,0.394,1.0,0.319,0.006
11/09/2023,08:21:09,0.397,1.0,0.326,0.007
11/09/2023,08:22:10,0.401,1.0,0.332,0.006
11/09/2023,08:23:10,0.402,1.0,0.339,0.007
11/09/2023,08:24:10,0.404,1.0,0.346,0.007
11/09/2023,08:25:09,0.413,1.0,0.353,0.007
11/09/2023,08:26:09,0.407,1.0,0.36,0.007
11/09/2023,08:27:10,0.422,1.0,0.367,0.007
11/09/2023,08:28:10,0.440,1.0,0.374,0.007
11/09/2023,08:29:09,0.450,1.0,0.381,0.007
11/09/2023,08:30:09,0.460,1.0,0.388,0.007
11/09/2023,08:31:10,0.467,1.0,0.396,0.008
11/09/2023,08:32:09,0.473,1.0,0.404,0.008
11/09/2023,08:33:09,0.492,1.0,0.412,0.008
11/09/2023,08:34:09,0.502,1.0,0.42,0.008
11/09/2023,08:35:09,0.493,1.0,0.428,0.008
11/09/2023,08:36:09,0.511,1.0,0.437,0.009
11/09/2023,08:37:08,0.512,1.0,0.445,0.008
11/09/2023,08:38:07,0.507,1.0,0.454,0.009
11/09/2023,08:39:10,0.525,1.0,0.463,0.009
11/09/2023,08:40:09,0.533,1.0,0.471,0.008
11/09/2023,08:41:10,0.547,1.0,0.48,0.009
11/09/2023,08:42:09,0.553,1.0,0.49,0.01
11/09/2023,08:43:09,0.567,1.0,0.499,0.009
11/09/2023,08:44:10,0.577,1.0,0.509,0.01
11/09/2023,08:45:10,0.585,1.0,0.518,0.009
11/09/2023,08:46:10,0.588,1.0,0.528,0.01
11/09/2023,08:47:09,0.589,1.0,0.538,0.01
11/09/2023,08:48:10,0.592,1.0,0.548,0.01
11/09/2023,08:49:09,0.610,1.0,0.558,0.01
11/09/2023,08:50:09,0.598,1.0,0.567,0.009
11/09/2023,08:51:09,0.606,1.0,0.578,0.011
11/09/2023,08:52:10,0.621,1.0,0.588,0.01
11/09/2023,08:53:10,0.649,1.0,0.599,0.011
11/09/2023,08:54:09,0.654,2.0,0.609,0.01
11/09/2023,08:55:09,0.663,2.0,0.62,0.011
11/09/2023,08:56:09,0.669,2.0,0.631,0.011
11/09/2023,08:57:09,0.671,2.0,0.642,0.011
11/09/2023,08:58:09,0.677,2.0,0.654,0.012
11/09/2023,08:59:10,0.690,2.0,0.665,0.011
11/09/2023,09:00:10,0.661,2.0,0.677,0.012
11/09/2023,09:01:10,0.682,2.0,0.688,0.011
11/09/2023,09:02:09,0.692,2.0,0.699,0.011
11/09/2023,09:03:10,0.668,2.0,0.711,0.012
11/09/2023,09:04:09,0.683,2.0,0.722,0.011
11/09/2023,09:05:09,0.678,2.0,0.733,0.011
11/09/2023,09:06:09,0.699,2.0,0.745,0.012
11/09/2023,09:07:10,0.673,2.0,0.756,0.011
11/09/2023,09:08:09,0.702,2.0,0.767,0.011
11/09/2023,09:09:10,0.722,2.0,0.78,0.013
11/09/2023,09:10:09,0.698,2.0,0.791,0.011
11/09/2023,09:11:09,0.690,2.0,0.803,0.012
11/09/2023,09:12:10,0.715,2.0,0.815,0.012
11/09/2023,09:13:10,0.712,2.0,0.827,0.012
11/09/2023,09:14:10,0.683,2.0,0.838,0.011
11/09/2023,09:15:09,0.687,2.0,0.849,0.011
11/09/2023,09:16:10,0.711,2.0,0.861,0.012
11/09/2023,09:17:09,0.653,2.0,0.873,0.012
11/09/2023,09:18:09,0.630,1.0,0.883,0.01
11/09/2023,09:19:10,0.615,1.0,0.894,0.011
11/09/2023,09:20:09,0.624,1.0,0.904,0.01
11/09/2023,09:21:10,0.693,2.0,0.915,0.011
11/09/2023,09:22:10,0.637,1.0,0.927,0.012
11/09/2023,09:23:10,0.655,2.0,0.937,0.01
11/09/2023,09:24:10,0.671,2.0,0.948,0.011
11/09/2023,09:25:10,0.669,2.0,0.96,0.012
11/09/2023,09:26:10,0.809,2.0,0.972,0.012
11/09/2023,09:27:09,0.729,2.0,0.986,0.014
11/09/2023,09:28:08,0.673,2.0,0.997,0.011
11/09/2023,09:29:08,0.658,2.0,1.008,0.011
11/09/2023,09:30:10,0.656,2.0,1.02,0.012
11/09/2023,09:31:10,0.652,1.0,1.031,0.011
11/09/2023,09:32:10,0.661,2.0,1.042,0.011
11/09/2023,09:33:09,0.655,2.0,1.053,0.011
11/09/2023,09:34:10,0.665,2.0,1.063,0.01
11/09/2023,09:35:09,0.675,2.0,1.075,0.012
11/09/2023,09:36:08,0.755,2.0,1.086,0.011
11/09/2023,09:37:08,0.701,2.0,1.098,0.012
11/09/2023,09:38:10,0.757,2.0,1.111,0.013
11/09/2023,09:39:10,0.753,2.0,1.124,0.013
11/09/2023,09:40:08,0.857,2.0,1.137,0.013
11/09/2023,09:41:07,0.803,2.0,1.152,0.015
11/09/2023,09:42:10,0.921,2.0,1.167,0.015
11/09/2023,09:43:09,0.916,2.0,1.182,0.015
11/09/2023,09:44:10,0.905,2.0,1.197,0.015
11/09/2023,09:45:10,0.902,2.0,1.212,0.015
11/09/2023,09:46:10,0.665,2.0,1.226,0.014
11/09/2023,09:47:10,0.639,1.0,1.237,0.011
11/09/2023,09:48:10,0.651,1.0,1.248,0.011
11/09/2023,09:49:10,0.685,2.0,1.259,0.011
11/09/2023,09:50:10,0.959,2.0,1.273,0.014
11/09/2023,09:51:09,0.903,2.0,1.289,0.016
11/09/2023,09:52:10,0.990,2.0,1.305,0.016
11/09/2023,09:53:10,0.808,2.0,1.321,0.016
11/09/2023,09:54:10,0.986,2.0,1.336,0.015
11/09/2023,09:55:10,0.983,2.0,1.353,0.017
11/09/2023,09:56:10,0.939,2.0,1.368,0.015
11/09/2023,09:57:10,0.770,2.0,1.383,0.015
11/09/2023,09:58:09,0.968,2.0,1.397,0.014
11/09/2023,09:59:32,0.836,2.0,1.416,0.019
11/09/2023,10:00:09,0.742,2.0,1.424,0.008
11/09/2023,10:01:07,0.653,2.0,1.437,0.013
11/09/2023,10:02:07,0.629,1.0,1.447,0.01
11/09/2023,10:03:10,0.642,1.0,1.458,0.011
11/09/2023,10:04:10,0.639,1.0,1.469,0.011
11/09/2023,10:05:10,0.894,2.0,1.482,0.013
11/09/2023,10:06:09,0.655,2.0,1.495,0.013